Location: River House Observatory
(37.8577°N, 76.3548°W)
Time: 04:03:42
(UTC-04:00)

Hubble Space Telescope - Visible Passes

Search period start: 23 July 2018 00:00
Search period end: 02 August 2018 00:00
Orbit: 537 x 541 km, 28.5° (Epoch: 22 July)

Date Brightness Start Highest point End Pass type
(mag) Time Alt. Az. Time Alt. Az. Time Alt. Az.
23 Jul 2.6 04:44:00 15° S 04:44:00 15° S 04:45:59 10° SSE visible
24 Jul 3.1 04:34:54 10° S 04:34:54 10° S 04:35:02 10° S visible
29 Jul 2.9 20:46:50 10° S 20:48:06 11° SSE 20:49:22 10° SE visible
29 Jul 3.3 22:25:31 10° SW 22:25:45 11° SW 22:25:45 11° SW visible
30 Jul 2.8 22:14:58 10° SW 22:16:15 16° SSW 22:16:15 16° SSW visible
31 Jul 2.5 22:04:29 10° SW 22:06:36 20° SSW 22:06:36 20° SSW visible
01 Aug 2.3 21:54:02 10° SW 21:56:51 22° S 21:56:51 22° S visible
